TimeEDT,TemperatureF,Dew PointF,Humidity,Sea Level PressureIn,VisibilityMPH,Wind Direction,Wind SpeedMPH,Gust SpeedMPH,PrecipitationIn,Events,Conditions,WindDirDegrees,DateUTC
12:00 AM,71.6,69.8,94,30.02,20.0,WSW,3.5,-,N/A,,Mostly Cloudy,240,2013-07-06 04:00:00
1:00 AM,71.6,69.8,94,30.03,20.0,WSW,3.5,-,N/A,,Scattered Clouds,240,2013-07-06 05:00:00
2:00 AM,71.6,69.8,94,30.03,20.0,WSW,4.6,-,N/A,,Mostly Cloudy,250,2013-07-06 06:00:00
3:00 AM,71.6,69.8,94,30.03,6.0,WSW,4.6,-,N/A,,Overcast,240,2013-07-06 07:00:00
4:00 AM,71.6,69.8,94,30.03,8.0,WSW,4.6,-,N/A,,Overcast,240,2013-07-06 08:00:00
5:00 AM,71.6,69.8,94,30.03,6.0,SW,5.8,-,N/A,,Overcast,230,2013-07-06 09:00:00
6:00 AM,71.6,69.8,94,30.04,6.0,WSW,4.6,-,N/A,,Overcast,250,2013-07-06 10:00:00
7:00 AM,71.6,69.8,94,30.05,6.0,WSW,4.6,-,N/A,,Overcast,240,2013-07-06 11:00:00
8:00 AM,71.6,69.8,94,30.06,6.0,WSW,8.1,-,N/A,,Overcast,250,2013-07-06 12:00:00
9:00 AM,73.4,68.0,83,30.06,6.0,WSW,6.9,-,N/A,,Overcast,250,2013-07-06 13:00:00
10:00 AM,73.4,69.8,88,30.06,15.0,SW,11.5,-,N/A,,Overcast,230,2013-07-06 14:00:00
11:00 AM,75.2,69.8,83,30.04,15.0,WSW,8.1,-,N/A,,Overcast,240,2013-07-06 15:00:00
12:00 PM,78.8,69.8,74,30.05,15.0,WSW,10.4,18.4,N/A,,Mostly Cloudy,240,2013-07-06 16:00:00
1:00 PM,80.6,69.8,70,30.04,10.0,West,10.4,-,N/A,,Mostly Cloudy,260,2013-07-06 17:00:00
2:00 PM,80.6,68.0,65,30.02,10.0,West,9.2,-,N/A,,Scattered Clouds,260,2013-07-06 18:00:00
3:00 PM,82.4,68.0,62,30.01,15.0,West,8.1,-,N/A,,Scattered Clouds,270,2013-07-06 19:00:00
4:00 PM,84.2,68.0,58,30.00,15.0,SW,9.2,20.7,N/A,,Scattered Clouds,230,2013-07-06 20:00:00
5:00 PM,82.4,68.0,62,29.98,25.0,SW,9.2,18.4,N/A,,Scattered Clouds,230,2013-07-06 21:00:00
6:00 PM,82.4,68.0,62,29.97,20.0,SW,6.9,18.4,N/A,,Scattered Clouds,220,2013-07-06 22:00:00
7:00 PM,80.6,68.0,65,29.96,20.0,SW,6.9,-,N/A,,Scattered Clouds,220,2013-07-06 23:00:00
8:00 PM,78.8,68.0,69,29.96,20.0,SW,6.9,-,N/A,,Scattered Clouds,230,2013-07-07 00:00:00
9:00 PM,77.0,68.0,74,29.97,20.0,SW,6.9,-,N/A,,Mostly Cloudy,230,2013-07-07 01:00:00
10:00 PM,75.2,66.2,73,29.99,20.0,SW,6.9,-,N/A,,Mostly Cloudy,220,2013-07-07 02:00:00
11:00 PM,73.4,64.4,73,29.99,20.0,SW,5.8,-,N/A,,Mostly Cloudy,230,2013-07-07 03:00:00